FW6767 Weather Reports


Display with metric or nautical units.
time (UTC)temp
F
wind
direction
speed
MPH
gust
MPH
rain 1hr
in
rain 24hr
in
rain mn
in
humidity
%
barometer
mb
20260505170106 78 138 2.0 6.0 0.00 0.00 0.00 42 1017.2
20260505164605 79 235 1.0 5.0 0.00 0.00 0.00 44 1017.2
20260505163059 78 252 1.0 4.0 0.00 0.00 0.00 48 1017.1
20260505161623 77 115 1.0 3.0 0.00 0.00 0.00 50 1017.4
20260505160105 75 110 1.0 4.0 0.00 0.00 0.00 57 1017.4
20260505153059 73 195 0.0 4.0 0.00 0.00 0.00 58 1017.8
20260505151601 72 72 0.0 2.0 0.00 0.00 0.00 56 1017.9
20260505140109 67 0 0.0 2.0 0.00 0.00 0.00 68 1017.7
20260505124559 56 0 0.0 0.0 0.00 0.00 0.00 90 1017.3
20260505123103 52 0 0.0 0.0 0.00 0.00 0.00 96 1017.5
20260505121557 49 0 0.0 0.0 0.00 0.00 0.00 94 1017.2
20260505120058 48 0 0.0 0.0 0.00 0.00 0.00 93 1017.0
20260505114555 47 0 0.0 0.0 0.00 0.00 0.00 94 1016.8
20260505113110 46 0 0.0 0.0 0.00 0.00 0.00 94 1016.6
20260505111556 46 0 0.0 0.0 0.00 0.00 0.00 93 1016.6
20260505101556 46 0 0.0 0.0 0.00 0.00 0.00 93 1016.3
20260505100057 46 0 0.0 0.0 0.00 0.00 0.00 92 1016.3
20260505094555 46 0 0.0 0.0 0.00 0.00 0.00 92 1016.3
20260505093058 47 0 0.0 0.0 0.00 0.00 0.00 93 1016.2
20260505091615 47 0 0.0 0.0 0.00 0.00 0.00 92 1016.2
20260505090057 47 0 0.0 0.0 0.00 0.00 0.00 92 1016.0
20260505084555 47 0 0.0 0.0 0.00 0.00 0.00 92 1016.1
20260505083100 47 0 0.0 0.0 0.00 0.00 0.00 92 1016.1
20260505081602 48 0 0.0 0.0 0.00 0.00 0.00 91 1015.9
20260505080111 48 0 0.0 0.0 0.00 0.00 0.00 90 1015.9
20260505074559 48 0 0.0 0.0 0.00 0.00 0.00 90 1015.5
20260505073058 49 0 0.0 1.0 0.00 0.00 0.00 90 1015.5
20260505071604 49 0 0.0 1.0 0.00 0.00 0.00 89 1015.4
20260505070059 50 0 0.0 0.0 0.00 0.00 0.00 89 1015.6
20260505064557 50 0 0.0 1.0 0.00 0.00 0.00 89 1015.7
20260505063137 50 285 0.0 1.0 0.00 0.00 0.00 88 1015.9
20260505061639 51 0 0.0 1.0 0.00 0.00 0.00 88 1015.9
20260505054559 52 0 0.0 1.0 0.00 0.00 0.00 88 1015.7
20260505053058 52 0 0.0 0.0 0.00 0.00 0.00 87 1015.9
20260505051613 52 0 0.0 0.0 0.00 0.00 0.00 87 1015.9
20260505041556 54 0 0.0 0.0 0.00 0.00 0.00 86 1015.9
20260505040107 55 0 0.0 0.0 0.00 0.00 0.00 85 1015.9
20260505034555 55 0 0.0 0.0 0.00 0.00 0.00 85 1016.1
20260505033056 56 0 0.0 1.0 0.00 0.00 0.00 84 1016.2
20260505031559 56 0 0.0 1.0 0.00 0.00 0.00 84 1016.2
20260505030057 57 0 0.0 0.0 0.00 0.00 0.00 82 1016.2
20260505024555 58 0 0.0 0.0 0.00 0.00 0.00 81 1016.2
20260505023056 58 0 0.0 0.0 0.00 0.00 0.00 80 1016.2
20260505021555 59 0 0.0 0.0 0.00 0.00 0.00 80 1015.8
20260505020104 60 0 0.0 0.0 0.00 0.00 0.00 79 1015.7
20260505014557 60 0 0.0 0.0 0.00 0.00 0.00 77 1015.7
20260505013106 61 0 0.0 1.0 0.00 0.00 0.00 76 1015.7
20260505011555 62 0 0.0 0.0 0.00 0.00 0.00 75 1015.4
20260505010111 64 0 0.0 0.0 0.00 0.00 0.00 72 1015.3
20260505004554 65 0 0.0 0.0 0.00 0.00 0.00 70 1015.3
20260505003059 67 0 0.0 0.0 0.00 0.00 0.00 67 1015.0
20260505001603 68 0 0.0 0.0 0.00 0.00 0.00 64 1015.1
20260504234600 71 0 0.0 0.0 0.00 0.00 0.00 58 1014.9
20260504233109 72 0 0.0 0.0 0.00 0.00 0.00 51 1014.8
20260504231603 73 0 0.0 0.0 0.00 0.00 0.00 48 1014.7
20260504230059 73 0 0.0 3.0 0.00 0.00 0.00 45 1014.6
20260504224556 74 0 0.0 2.0 0.00 0.00 0.00 45 1014.6
20260504223057 74 0 0.0 3.0 0.00 0.00 0.00 45 1014.7
20260504221557 75 0 0.0 3.0 0.00 0.00 0.00 47 1014.7
20260504220059 75 269 0.0 1.0 0.00 0.00 0.00 48 1014.7
20260504214556 76 0 0.0 1.0 0.00 0.00 0.00 47 1014.7
20260504213055 76 0 0.0 3.0 0.00 0.00 0.00 45 1014.6
20260504211556 76 0 0.0 3.0 0.00 0.00 0.00 43 1014.7
20260504210107 76 265 0.0 4.0 0.00 0.00 0.00 44 1014.9
20260504204602 76 286 0.0 6.0 0.00 0.00 0.00 39 1014.9
20260504203108 77 0 0.0 3.0 0.00 0.00 0.00 44 1015.2
20260504201600 77 0 0.0 3.0 0.00 0.00 0.00 40 1015.1
20260504200059 78 0 1.0 3.0 0.00 0.00 0.00 38 1015.1
20260504194605 79 236 1.0 4.0 0.00 0.00 0.00 35 1015.4
20260504193102 79 144 1.0 4.0 0.00 0.00 0.00 35 1015.4
20260504191555 80 30 0.0 6.0 0.00 0.00 0.00 38 1015.7
20260504190128 80 184 0.0 3.0 0.00 0.00 0.00 39 1016.1
20260504184557 79 253 1.0 5.0 0.00 0.00 0.00 37 1016.3
20260504183057 79 163 1.0 4.0 0.00 0.00 0.00 37 1016.4
20260504181559 79 0 2.0 6.0 0.00 0.00 0.00 38 1016.5
20260504180058 78 0 1.0 5.0 0.00 0.00 0.00 38 1016.7
20260504174601 77 0 1.0 5.0 0.00 0.00 0.00 38 1016.7
20260504173101 78 161 1.0 6.0 0.00 0.00 0.00 38 1017.0
20260504171558 77 130 1.0 5.0 0.00 0.00 0.00 38 1017.1